Weather History for KDIK - April, 2014

Change the Weather History Date:

Tuesday, April 1, 2014

  Actual Average Record
Temperature  
Mean Temperature 5 °F 36 °F  
Max Temperature 19 °F 49 °F 78 °F (2012)
Min Temperature -9 °F 24 °F -10 °F (1975)
Degree Days  
Heating Degree Days 60 29  
Month to date heating degree days 60 29  
Since 1 July heating degree days 7898 7409  
Cooling Degree Days 0 0  
Month to date cooling degree days 0 0  
Year to date cooling degree days 0 0  
Moisture  
Dew Point 0 °F    
Average Humidity 76    
Maximum Humidity 95    
Minimum Humidity 56    
Precipitation  
Precipitation 0.00 in 0.03 in 0.85 in (1999)
Month to date precipitation 0.00 0.03  
Year to date precipitation 0.67 1.35  
Sea Level Pressure  
Sea Level Pressure 30.17 in    
Wind  
Wind Speed 6 mph (SE)    
Max Wind Speed 14 mph    
Max Gust Speed 15 mph    
Visibility 10 miles    
Events Snow    
T = Trace of Precipitation, MM = Missing Value Source: NWS Daily Summary

Daily Weather History Graph

Daily Weather History Graph

Search for Another Location

Airport or City:

Trip Planner

Search our weather history database for the weather conditions in past years. The results will help you decide how hot, cold, wet, or windy it might be!

Date:

Astronomy

Apr. 01, 2014 Rise Set
Actual Time 6:30 AM MDT 7:20 PM MDT
Civil Twilight 5:59 AM MDT 7:51 PM MDT
Nautical Twilight 5:23 AM MDT 8:28 PM MDT
Astronomical Twilight 4:44 AM MDT 9:06 PM MDT
Moon 7:27 AM MDT (4/1) 9:54 PM MDT (4/1)
Length of Visible Light 13h 51m
Length of Day
12h 50m
Waxing Crescent, 5% of the Moon is Illuminated
Apr 1
Waxing Crescent
Apr 7
First Quarter
Apr 15
Full
Apr 22
Last Quarter
Apr 29
New

Hourly Weather History & Observations

Time (MDT) Temp. Windchill Dew Point Humidity Pressure Visibility Wind Dir Wind Speed Gust Speed Precip Events Conditions
12:56 AM -0.9 °F -8.9 °F -4.0 °F 87% 30.22 in 10.0 mi WSW 3.5 mph - N/A   Clear
1:56 AM 5.0 °F -4.1 °F -0.9 °F 76% 30.19 in 10.0 mi NW 4.6 mph - 0.00 in   Clear
2:56 AM 1.0 °F -10.3 °F -4.0 °F 79% 30.18 in 10.0 mi NNE 5.8 mph - 0.00 in   Clear
3:56 AM 3.0 °F -10.5 °F -2.9 °F 76% 30.15 in 10.0 mi NNE 8.1 mph - N/A   Clear
4:56 AM -2.9 °F - -9.0 °F 75% 30.17 in 10.0 mi Calm Calm - N/A   Clear
5:56 AM -4.0 °F - -5.1 °F 95% 30.17 in 10.0 mi Calm Calm - 0.00 in   Clear
6:56 AM -7.1 °F -18.1 °F -11.0 °F 83% 30.20 in 10.0 mi SW 4.6 mph - N/A   Clear
7:56 AM -4.0 °F -12.4 °F -6.0 °F 91% 30.19 in 10.0 mi SSW 3.5 mph - 0.00 in   Clear
8:56 AM 1.9 °F - -0.9 °F 88% 30.19 in 10.0 mi Calm Calm - 0.00 in   Clear
9:56 AM 5.0 °F -2.1 °F -0.9 °F 76% 30.20 in 10.0 mi SSE 3.5 mph - 0.00 in Snow Light Snow
10:56 AM 9.0 °F -0.9 °F -0.0 °F 67% 30.19 in 9.0 mi SSE 5.8 mph - 0.00 in Snow Light Snow
11:56 AM 12.0 °F 4.1 °F 3.0 °F 67% 30.17 in 9.0 mi ESE 4.6 mph - 0.00 in Snow Light Snow
12:56 PM 12.9 °F 2.6 °F 1.0 °F 59% 30.17 in 9.0 mi East 6.9 mph - 0.00 in Snow Light Snow
1:56 PM 14.0 °F 2.9 °F 1.0 °F 56% 30.15 in 9.0 mi ESE 8.1 mph - 0.00 in   Clear
2:56 PM 15.1 °F 4.2 °F 3.0 °F 59% 30.15 in 10.0 mi SE 8.1 mph - N/A   Clear
3:56 PM 16.0 °F 5.3 °F 3.9 °F 59% 30.13 in 10.0 mi ESE 8.1 mph - N/A   Clear
4:56 PM 17.1 °F 7.6 °F 5.0 °F 59% 30.15 in 10.0 mi ESE 6.9 mph - N/A   Clear
5:56 PM 15.1 °F 4.2 °F 5.0 °F 64% 30.16 in 10.0 mi ESE 8.1 mph - N/A   Clear
6:56 PM 12.9 °F 0.7 °F 3.9 °F 67% 30.18 in 10.0 mi ESE 9.2 mph - N/A   Clear
7:56 PM 10.0 °F -2.9 °F 1.9 °F 70% 30.18 in 10.0 mi ESE 9.2 mph - N/A   Clear
8:56 PM 7.0 °F -6.6 °F -0.0 °F 73% 30.18 in 10.0 mi East 9.2 mph - N/A   Clear
9:56 PM 3.0 °F -11.5 °F -2.0 °F 80% 30.19 in 10.0 mi SE 9.2 mph - N/A   Clear
10:17 PM 9.0 °F -3.2 °F 3.0 °F 77% 30.00 in 10.0 mi SE 8.1 mph - N/A   Mostly Cloudy
10:56 PM 14.0 °F 2.0 °F 5.0 °F 67% 30.15 in 10.0 mi ESE 9.2 mph - N/A   Overcast
11:56 PM 16.0 °F 4.4 °F 8.1 °F 71% 30.14 in 10.0 mi ESE 9.2 mph - N/A   Overcast